TimeCST,TemperatureF,Dew PointF,Humidity,Sea Level PressureIn,VisibilityMPH,Wind Direction,Wind SpeedMPH,Gust SpeedMPH,PrecipitationIn,Events,Conditions,WindDirDegrees,DateUTC
12:53 AM,54.0,50.0,86,29.87,2.0,NNW,9.2,16.1,0.19,Rain,Heavy Rain,330,2012-12-10 06:53:00
1:00 AM,53.6,50.0,88,29.89,1.8,NW,10.4,20.7,0.09,Rain,Heavy Rain,320,2012-12-10 07:00:00
1:07 AM,53.6,50.0,88,29.89,3.0,NW,10.4,-,0.10,Rain,Light Rain,320,2012-12-10 07:07:00
1:53 AM,53.1,48.0,83,29.87,8.0,NNW,8.1,-,0.10,,Overcast,330,2012-12-10 07:53:00
2:16 AM,53.6,48.2,82,29.88,7.0,North,6.9,-,0.00,Rain,Light Rain,350,2012-12-10 08:16:00
2:26 AM,53.6,48.2,82,29.90,8.0,NW,9.2,-,0.00,,Overcast,320,2012-12-10 08:26:00
2:41 AM,51.8,46.4,82,29.91,10.0,NW,11.5,21.9,0.00,Rain,Light Rain,320,2012-12-10 08:41:00
2:48 AM,51.8,46.4,82,29.91,10.0,NNW,6.9,21.9,0.00,Rain,Light Rain,340,2012-12-10 08:48:00
3:24 AM,51.8,46.4,82,29.90,5.0,North,8.1,-,0.02,Rain,Light Rain,350,2012-12-10 09:24:00
3:37 AM,50.0,46.4,87,29.91,10.0,NW,6.9,-,0.02,Rain,Light Rain,320,2012-12-10 09:37:00
3:53 AM,48.9,43.0,80,29.91,10.0,NNW,11.5,19.6,0.02,,Overcast,330,2012-12-10 09:53:00
5:53 AM,44.1,32.0,63,29.99,10.0,NNW,15.0,23.0,N/A,,Overcast,330,2012-12-10 11:53:00
6:53 AM,41.0,26.1,55,30.04,10.0,NW,10.4,24.2,N/A,,Overcast,310,2012-12-10 12:53:00
7:53 AM,39.9,24.1,53,30.05,10.0,NW,9.2,18.4,N/A,,Overcast,320,2012-12-10 13:53:00
8:53 AM,41.0,23.0,49,30.05,10.0,NW,13.8,21.9,N/A,,Overcast,320,2012-12-10 14:53:00
9:53 AM,43.0,21.9,43,30.07,10.0,NNW,12.7,21.9,N/A,,Partly Cloudy,330,2012-12-10 15:53:00
10:53 AM,46.9,23.0,39,30.07,10.0,NNW,12.7,19.6,N/A,,Clear,340,2012-12-10 16:53:00
12:53 PM,52.0,28.0,40,30.04,10.0,Variable,5.8,-,N/A,,Clear,0,2012-12-10 18:53:00
1:53 PM,51.1,28.9,43,30.02,10.0,NW,13.8,19.6,N/A,,Clear,310,2012-12-10 19:53:00
2:53 PM,50.0,28.9,44,30.02,10.0,NW,12.7,19.6,N/A,,Clear,320,2012-12-10 20:53:00
3:53 PM,48.9,28.0,44,30.03,10.0,Variable,6.9,-,N/A,,Clear,0,2012-12-10 21:53:00
4:53 PM,46.0,26.1,46,30.04,10.0,NNW,12.7,-,N/A,,Clear,340,2012-12-10 22:53:00
5:53 PM,43.0,27.0,53,30.05,10.0,NW,4.6,-,N/A,,Clear,320,2012-12-10 23:53:00
6:53 PM,41.0,27.0,57,30.06,10.0,NNW,3.5,-,N/A,,Clear,330,2012-12-11 00:53:00
7:53 PM,39.0,26.1,60,30.09,10.0,NW,4.6,-,N/A,,Clear,310,2012-12-11 01:53:00
8:53 PM,37.0,26.1,65,30.11,10.0,NW,3.5,-,N/A,,Clear,320,2012-12-11 02:53:00
9:53 PM,37.0,26.1,65,30.11,10.0,NNW,4.6,-,N/A,,Clear,340,2012-12-11 03:53:00
10:53 PM,35.6,26.6,70,30.11,10.0,Calm,Calm,-,N/A,,Clear,0,2012-12-11 04:53:00
11:53 PM,36.0,25.0,64,30.11,10.0,NNW,4.6,-,N/A,,Clear,330,2012-12-11 05:53:00